This is the latest recevied weather packets stored in our database for station/object KB1JLI. If no packets are shown the sender has not sent any weather packets the latest 10 day(s).
| Time | Temp. | Humidity | Pressure | Rain* | Wind** | Luminosity | Snow |
|---|---|---|---|---|---|---|---|
| 1777219005 | 14.44° C | 40% | 1020.9 hPa | 0 mm | - | 322 W/m² | - |
| 1777218700 | 15° C | 38% | 1021 hPa | 0 mm | - | 367 W/m² | - |
| 1777218396 | 15.56° C | 38% | 1020.9 hPa | 0 mm | - | 580 W/m² | - |
| 1777218092 | 14.44° C | 41% | 1020.9 hPa | 0 mm | - | 646 W/m² | - |
| 1777217788 | 13.89° C | 40% | 1020.8 hPa | 0 mm | - | 532 W/m² | - |
| 1777217485 | 14.44° C | 41% | 1021 hPa | 0 mm | - | 419 W/m² | - |
| 1777217180 | 14.44° C | 39% | 1020.6 hPa | 0 mm | - | 346 W/m² | - |
| 1777216877 | 13.89° C | 41% | 1020.9 hPa | 0 mm | - | 340 W/m² | - |
| 1777216574 | 13.89° C | 40% | 1020.8 hPa | 0 mm | - | 426 W/m² | - |
| 1777216270 | 13.33° C | 42% | 1020.8 hPa | 0 mm | - | 429 W/m² | - |
| 1777215969 | 13.33° C | 42% | 1020.9 hPa | 0 mm | - | 266 W/m² | - |
| 1777215664 | 13.89° C | 40% | 1020.8 hPa | 0 mm | - | 236 W/m² | - |
| 1777215359 | 13.33° C | 43% | 1020.8 hPa | 0 mm | - | 265 W/m² | - |
| 1777215056 | 13.89° C | 42% | 1020.8 hPa | 0 mm | - | 314 W/m² | - |
| 1777214755 | 13.33° C | 43% | 1020.7 hPa | 0 mm | - | 326 W/m² | - |
| 1777214454 | 13.33° C | 41% | 1020.8 hPa | 0 mm | - | 291 W/m² | - |
| 1777214149 | 13.33° C | 45% | 1020.6 hPa | 0 mm | - | 307 W/m² | - |
| 1777213844 | 12.78° C | 45% | 1020.7 hPa | 0 mm | - | 255 W/m² | - |
| 1777213539 | 12.78° C | 43% | 1020.8 hPa | 0 mm | - | 291 W/m² | - |
| 1777213237 | 12.78° C | 45% | 1020.9 hPa | 0 mm | - | 262 W/m² | - |
| 1777212933 | 12.78° C | 46% | 1020.8 hPa | 0 mm | - | 245 W/m² | - |
| 1777212631 | 12.78° C | 47% | 1020.6 hPa | 0 mm | - | 245 W/m² | - |
| 1777212329 | 12.78° C | 45% | 1020.8 hPa | 0 mm | - | 239 W/m² | - |
| 1777212025 | 12.78° C | 46% | 1020.8 hPa | 0 mm | - | 227 W/m² | - |
| 1777211721 | 12.78° C | 46% | 1020.5 hPa | 0 mm | - | 224 W/m² | - |
* Rain latest hour (hover to see other rain measurements)
** Current wind speed in m/s (hover to see current wind gust speed)